TimeCST,TemperatureF,Dew PointF,Humidity,Sea Level PressureIn,VisibilityMPH,Wind Direction,Wind SpeedMPH,Gust SpeedMPH,PrecipitationIn,Events,Conditions,WindDirDegrees,DateUTC
12:54 AM,33.1,28.0,82,30.30,10.0,West,4.6,-,N/A,,Clear,280,2013-11-07 06:54:00
1:54 AM,33.1,27.0,78,30.30,10.0,West,4.6,-,N/A,,Clear,260,2013-11-07 07:54:00
2:54 AM,32.0,27.0,82,30.31,10.0,West,4.6,-,N/A,,Clear,260,2013-11-07 08:54:00
3:54 AM,28.9,26.1,89,30.31,10.0,WSW,3.5,-,N/A,,Clear,240,2013-11-07 09:54:00
4:54 AM,28.9,27.0,92,30.32,10.0,WSW,4.6,-,N/A,,Clear,240,2013-11-07 10:54:00
5:54 AM,28.0,26.1,92,30.32,10.0,SSW,4.6,-,N/A,,Clear,210,2013-11-07 11:54:00
6:54 AM,28.9,26.1,89,30.35,10.0,SW,5.8,-,N/A,,Partly Cloudy,220,2013-11-07 12:54:00
7:54 AM,33.1,30.0,89,30.35,10.0,SSW,5.8,-,N/A,,Clear,210,2013-11-07 13:54:00
8:54 AM,39.0,34.0,82,30.34,10.0,WSW,9.2,-,N/A,,Clear,240,2013-11-07 14:54:00
9:54 AM,43.0,34.0,71,30.33,10.0,WSW,10.4,-,N/A,,Clear,240,2013-11-07 15:54:00
10:54 AM,46.0,36.0,68,30.33,10.0,WSW,10.4,-,N/A,,Clear,240,2013-11-07 16:54:00
11:54 AM,50.0,35.1,57,30.31,10.0,West,12.7,-,N/A,,Clear,260,2013-11-07 17:54:00
12:54 PM,51.1,30.9,46,30.30,10.0,West,11.5,-,N/A,,Clear,270,2013-11-07 18:54:00
1:54 PM,52.0,28.9,41,30.29,10.0,WNW,15.0,19.6,N/A,,Partly Cloudy,300,2013-11-07 19:54:00
2:54 PM,52.0,28.9,41,30.28,10.0,NW,11.5,19.6,N/A,,Clear,320,2013-11-07 20:54:00
3:54 PM,51.1,28.9,43,30.29,10.0,NW,10.4,-,N/A,,Partly Cloudy,320,2013-11-07 21:54:00
4:54 PM,45.0,30.0,56,30.30,10.0,NW,4.6,-,N/A,,Clear,310,2013-11-07 22:54:00
5:54 PM,43.0,28.9,58,30.32,10.0,WNW,5.8,-,N/A,,Clear,290,2013-11-07 23:54:00
6:54 PM,43.0,28.0,56,30.32,10.0,West,3.5,-,N/A,,Clear,280,2013-11-08 00:54:00
7:54 PM,39.9,27.0,60,30.33,10.0,WNW,6.9,-,N/A,,Clear,300,2013-11-08 01:54:00
8:54 PM,36.0,27.0,70,30.34,10.0,WNW,4.6,-,N/A,,Clear,300,2013-11-08 02:54:00
9:54 PM,37.9,27.0,65,30.34,10.0,WNW,4.6,-,N/A,,Clear,290,2013-11-08 03:54:00
10:54 PM,37.0,27.0,67,30.33,10.0,West,3.5,-,N/A,,Clear,270,2013-11-08 04:54:00
11:54 PM,30.9,26.1,82,30.34,10.0,WSW,3.5,-,N/A,,Clear,240,2013-11-08 05:54:00